QPF
0.04 0.03 0.03 0.02 0.01 0.01 0.01 0.01 0.01 0.01 0.00 0.01 0.01 0.01 0.01 0.01 0.01 0.02 0.04 0.08 0.15 0.18 0.20 0.19 0.13 0.12 0.13 0.12 0.11 0.09 0.09 0.06 0.05 0.04 0.03 0.03 0.03 0.02 0.03 0.05 0.06 0.07 0.11
0.02 0.02 0.03 0.03 0.01 0.01 0.01 0.01 0.01 0.01 0.01 0.01 0.01 0.01 0.01 0.01 0.01 0.02 0.03 0.04 0.05 0.09 0.12 0.14 0.13 0.12 0.12 0.13 0.15 0.11 0.08 0.06 0.05 0.03 0.03 0.03 0.03 0.03 0.04 0.05 0.06 0.07 0.10
0.02 0.02 0.03 0.02 0.02 0.01 0.01 0.01 0.01 0.02 0.02 0.02 0.02 0.02 0.02 0.02 0.02 0.02 0.03 0.04 0.04 0.04 0.04 0.08 0.12 0.12 0.10 0.10 0.10 0.11 0.09 0.05 0.04 0.03 0.03 0.03 0.03 0.03 0.04 0.04 0.04 0.06 0.08
0.02 0.02 0.02 0.02 0.02 0.03 0.03 0.03 0.03 0.03 0.03 0.02 0.02 0.03 0.03 0.03 0.03 0.02 0.02 0.03 0.03 0.02 0.02 0.03 0.05 0.07 0.07 0.08 0.07 0.08 0.09 0.06 0.04 0.04 0.03 0.03 0.03 0.03 0.03 0.03 0.03 0.04 0.05
0.02 0.02 0.03 0.02 0.03 0.04 0.04 0.03 0.02 0.02 0.02 0.02 0.02 0.03 0.04 0.02 0.02 0.01 0.02 0.02 0.01 0.01 0.01 0.01 0.02 0.03 0.03 0.05 0.06 0.05 0.04 0.04 0.05 0.04 0.04 0.03 0.03 0.03 0.03 0.03 0.03 0.02 0.02
0.01 0.02 0.03 0.03 0.02 0.02 0.03 0.03 0.02 0.02 0.02 0.03 0.03 0.02 0.02 0.01 0.02 0.01 0.01 0.01 0.01 0.01 0.01 0.01 0.01 0.01 0.01 0.02 0.04 0.03 0.03 0.03 0.03 0.04 0.03 0.03 0.03 0.03 0.04 0.03 0.03 0.02 0.02
0.01 0.01 0.02 0.03 0.03 0.03 0.04 0.03 0.03 0.02 0.01 0.03 0.04 0.03 0.02 0.02 0.01 0.01 0.01 0.01 0.01 0.01 0.01 0.01 0.01 0.01 0.01 0.01 0.02 0.03 0.04 0.05 0.04 0.03 0.03 0.05 0.04 0.04 0.05 0.04 0.04 0.03 0.03
0.01 0.01 0.01 0.02 0.03 0.03 0.04 0.03 0.03 0.02 0.02 0.02 0.04 0.03 0.02 0.02 0.01 0.01 0.01 0.01 0.01 0.01 0.01 0.01 0.02 0.01 0.01 0.01 0.01 0.03 0.04 0.04 0.05 0.04 0.06 0.11 0.06 0.07 0.07 0.05 0.05 0.04 0.03
0.01 0.01 0.01 0.01 0.02 0.03 0.03 0.03 0.03 0.03 0.03 0.03 0.03 0.04 0.03 0.02 0.02 0.02 0.01 0.01 0.01 0.01 0.01 0.01 0.00 0.00 0.00 0.01 0.01 0.01 0.02 0.03 0.04 0.04 0.08 0.12 0.12 0.12 0.07 0.05 0.05 0.04 0.04
0.02 0.02 0.01 0.01 0.01 0.02 0.02 0.03 0.03 0.03 0.03 0.03 0.03 0.02 0.03 0.03 0.02 0.02 0.01 0.01 0.00 0.01 0.01 0.01 0.01 0.00 0.00 0.01 0.02 0.02 0.03 0.03 0.03 0.03 0.05 0.09 0.11 0.08 0.06 0.06 0.05 0.05 0.06
0.03 0.03 0.03 0.01 0.02 0.02 0.02 0.03 0.02 0.02 0.03 0.03 0.04 0.03 0.03 0.03 0.03 0.02 0.01 0.01 0.00 0.00 0.01 0.01 0.01 0.02 0.03 0.03 0.03 0.03 0.03 0.03 0.02 0.02 0.03 0.04 0.05 0.05 0.05 0.05 0.04 0.05 0.05
0.02 0.03 0.02 0.02 0.02 0.03 0.03 0.05 0.04 0.03 0.04 0.04 0.04 0.03 0.03 0.03 0.03 0.02 0.02 0.01 0.01 0.00 0.00 0.00 0.01 0.01 0.01 0.01 0.01 0.02 0.02 0.01 0.01 0.01 0.01 0.02 0.03 0.03 0.03 0.02 0.03 0.03 0.03
0.02 0.02 0.02 0.03 0.02 0.02 0.02 0.03 0.03 0.04 0.05 0.05 0.02 0.01 0.01 0.02 0.03 0.03 0.02 0.02 0.01 0.01 0.00 0.00 0.00 0.00 0.00 0.00 0.00 0.01 0.01 0.01 0.01 0.01 0.01 0.01 0.02 0.02 0.03 0.03 0.03 0.03 0.04
0.02 0.02 0.02 0.03 0.03 0.02 0.01 0.01 0.03 0.02 0.02 0.03 0.02 0.01 0.02 0.02 0.02 0.02 0.02 0.01 0.01 0.01 0.01 0.00 0.00 0.00 0.00 0.00 0.00 0.00 0.01 0.01 0.01 0.01 0.01 0.01 0.01 0.01 0.02 0.03 0.03 0.03 0.04
0.02 0.01 0.02 0.03 0.03 0.03 0.02 0.02 0.03 0.03 0.02 0.01 0.02 0.02 0.02 0.02 0.02 0.02 0.01 0.01 0.02 0.01 0.01 0.01 0.00 0.00 0.00 0.00 0.00 0.00 0.01 0.01 0.01 0.01 0.02 0.02 0.02 0.01 0.01 0.01 0.01 0.02 0.02
0.02 0.01 0.02 0.02 0.04 0.04 0.03 0.02 0.03 0.02 0.01 0.01 0.02 0.03 0.04 0.03 0.03 0.02 0.02 0.03 0.02 0.02 0.02 0.02 0.01 0.00 0.00 0.00 0.00 0.00 0.00 0.01 0.02 0.02 0.02 0.02 0.02 0.02 0.02 0.02 0.02 0.02 0.03
0.02 0.01 0.01 0.02 0.02 0.03 0.03 0.02 0.02 0.02 0.02 0.01 0.02 0.03 0.05 0.06 0.05 0.04 0.04 0.04 0.04 0.03 0.03 0.03 0.02 0.01 0.00 0.00 0.00 0.00 0.01 0.01 0.02 0.03 0.03 0.03 0.03 0.02 0.02 0.03 0.03 0.04 0.05
0.04 0.02 0.01 0.02 0.02 0.02 0.02 0.02 0.02 0.02 0.02 0.02 0.02 0.02 0.04 0.06 0.04 0.04 0.03 0.02 0.03 0.03 0.04 0.05 0.04 0.03 0.02 0.01 0.01 0.01 0.01 0.01 0.01 0.01 0.01 0.02 0.02 0.02 0.02 0.03 0.03 0.05 0.07
0.03 0.01 0.02 0.02 0.02 0.02 0.02 0.03 0.03 0.03 0.03 0.03 0.02 0.02 0.02 0.04 0.05 0.04 0.02 0.01 0.02 0.02 0.03 0.03 0.03 0.03 0.02 0.01 0.01 0.01 0.01 0.01 0.01 0.01 0.01 0.01 0.01 0.02 0.03 0.03 0.03 0.04 0.05
0.01 0.00 0.01 0.01 0.01 0.01 0.01 0.02 0.03 0.03 0.03 0.03 0.03 0.03 0.03 0.02 0.04 0.02 0.01 0.01 0.01 0.01 0.02 0.02 0.02 0.02 0.02 0.01 0.02 0.02 0.01 0.01 0.01 0.01 0.01 0.01 0.01 0.01 0.01 0.02 0.02 0.02 0.03
0.02 0.01 0.01 0.01 0.01 0.01 0.01 0.02 0.02 0.02 0.03 0.03 0.02 0.03 0.02 0.02 0.02 0.01 0.01 0.01 0.02 0.03 0.02 0.02 0.01 0.01 0.01 0.01 0.02 0.02 0.02 0.02 0.01 0.01 0.01 0.01 0.01 0.01 0.01 0.01 0.02 0.03 0.04
0.02 0.02 0.01 0.02 0.02 0.04 0.04 0.03 0.02 0.03 0.03 0.02 0.02 0.02 0.02 0.02 0.02 0.02 0.01 0.02 0.03 0.04 0.04 0.03 0.03 0.02 0.01 0.02 0.02 0.01 0.01 0.01 0.01 0.01 0.01 0.01 0.01 0.01 0.01 0.01 0.03 0.04 0.05
0.02 0.02 0.02 0.01 0.01 0.03 0.05 0.03 0.03 0.04 0.04 0.03 0.02 0.02 0.02 0.01 0.02 0.02 0.02 0.02 0.01 0.01 0.02 0.02 0.02 0.03 0.03 0.02 0.01 0.01 0.01 0.01 0.01 0.01 0.01 0.01 0.00 0.01 0.01 0.01 0.01 0.02 0.03
0.02 0.02 0.01 0.01 0.02 0.03 0.04 0.05 0.03 0.04 0.05 0.03 0.02 0.02 0.01 0.01 0.02 0.02 0.02 0.02 0.01 0.01 0.01 0.01 0.01 0.01 0.02 0.02 0.02 0.02 0.02 0.02 0.02 0.01 0.01 0.01 0.01 0.01 0.01 0.01 0.01 0.00 0.01
0.03 0.02 0.01 0.01 0.01 0.02 0.03 0.04 0.03 0.02 0.03 0.03 0.03 0.02 0.03 0.02 0.02 0.02 0.02 0.02 0.02 0.01 0.01 0.01 0.01 0.01 0.02 0.02 0.03 0.02 0.02 0.02 0.02 0.02 0.02 0.02 0.01 0.01 0.01 0.01 0.01 0.01 0.01
0.03 0.02 0.02 0.02 0.01 0.02 0.02 0.02 0.02 0.02 0.02 0.03 0.05 0.03 0.03 0.03 0.03 0.02 0.02 0.02 0.02 0.02 0.02 0.02 0.01 0.01 0.01 0.01 0.01 0.01 0.01 0.01 0.01 0.01 0.02 0.03 0.02 0.02 0.02 0.02 0.01 0.02 0.02
MSLP
1016.60 1016.95 1017.31 1017.67 1018.00 1018.29 1018.56 1018.79 1018.99 1019.18 1019.35 1019.50 1019.64 1019.76 1019.88 1019.98 1020.09 1020.20 1020.32 1020.45 1020.58 1020.71 1020.84 1020.96 1021.06 1021.14 1021.22 1021.29 1021.35 1021.41 1021.47 1021.52 1021.54 1021.54 1021.51 1021.43 1021.30 1021.13 1020.91 1020.64 1020.33 1020.00 1019.64
1016.86 1017.25 1017.64 1018.03 1018.38 1018.70 1018.99 1019.26 1019.52 1019.78 1020.03 1020.29 1020.52 1020.74 1020.92 1021.07 1021.19 1021.29 1021.37 1021.45 1021.52 1021.61 1021.69 1021.78 1021.87 1021.94 1022.01 1022.06 1022.10 1022.12 1022.14 1022.15 1022.13 1022.10 1022.04 1021.93 1021.79 1021.59 1021.35 1021.06 1020.73 1020.38 1020.02
1017.07 1017.49 1017.93 1018.35 1018.74 1019.09 1019.41 1019.72 1020.03 1020.36 1020.71 1021.06 1021.40 1021.71 1021.97 1022.17 1022.31 1022.40 1022.44 1022.47 1022.49 1022.51 1022.55 1022.61 1022.67 1022.72 1022.77 1022.80 1022.81 1022.80 1022.78 1022.74 1022.69 1022.62 1022.52 1022.39 1022.22 1022.01 1021.74 1021.44 1021.10 1020.74 1020.38
1017.22 1017.70 1018.19 1018.66 1019.08 1019.46 1019.80 1020.15 1020.50 1020.89 1021.30 1021.74 1022.17 1022.57 1022.91 1023.16 1023.34 1023.43 1023.45 1023.44 1023.41 1023.39 1023.39 1023.41 1023.44 1023.47 1023.50 1023.51 1023.49 1023.45 1023.39 1023.31 1023.22 1023.11 1022.98 1022.82 1022.63 1022.40 1022.12 1021.81 1021.46 1021.11 1020.75
1017.34 1017.88 1018.43 1018.94 1019.40 1019.81 1020.17 1020.53 1020.90 1021.31 1021.77 1022.26 1022.76 1023.23 1023.64 1023.96 1024.18 1024.29 1024.33 1024.31 1024.26 1024.21 1024.18 1024.18 1024.19 1024.20 1024.21 1024.19 1024.15 1024.08 1023.99 1023.87 1023.74 1023.60 1023.44 1023.26 1023.05 1022.80 1022.52 1022.19 1021.85 1021.49 1021.14
1017.44 1018.04 1018.64 1019.20 1019.70 1020.12 1020.49 1020.84 1021.20 1021.60 1022.06 1022.57 1023.11 1023.63 1024.10 1024.49 1024.77 1024.94 1025.02 1025.03 1025.00 1024.96 1024.92 1024.91 1024.91 1024.91 1024.90 1024.87 1024.81 1024.72 1024.59 1024.45 1024.29 1024.12 1023.94 1023.73 1023.50 1023.24 1022.95 1022.63 1022.28 1021.93 1021.58
1017.50 1018.16 1018.82 1019.43 1019.95 1020.38 1020.74 1021.06 1021.39 1021.75 1022.18 1022.67 1023.21 1023.76 1024.28 1024.73 1025.10 1025.35 1025.50 1025.58 1025.61 1025.61 1025.61 1025.61 1025.61 1025.61 1025.60 1025.56 1025.48 1025.37 1025.22 1025.06 1024.88 1024.69 1024.48 1024.26 1024.02 1023.75 1023.45 1023.13 1022.78 1022.43 1022.09
1017.53 1018.24 1018.94 1019.59 1020.14 1020.58 1020.92 1021.20 1021.48 1021.78 1022.15 1022.59 1023.11 1023.66 1024.22 1024.73 1025.18 1025.53 1025.79 1025.97 1026.09 1026.16 1026.22 1026.26 1026.29 1026.30 1026.29 1026.24 1026.16 1026.03 1025.88 1025.70 1025.51 1025.31 1025.09 1024.86 1024.61 1024.33 1024.03 1023.70 1023.36 1023.01 1022.67
1017.51 1018.25 1018.99 1019.66 1020.24 1020.69 1021.02 1021.27 1021.49 1021.72 1022.02 1022.40 1022.87 1023.41 1023.99 1024.55 1025.08 1025.53 1025.91 1026.20 1026.43 1026.60 1026.73 1026.83 1026.90 1026.93 1026.93 1026.89 1026.81 1026.69 1026.54 1026.36 1026.17 1025.97 1025.75 1025.51 1025.26 1024.98 1024.67 1024.34 1024.00 1023.65 1023.31
1017.44 1018.18 1018.94 1019.65 1020.25 1020.71 1021.05 1021.28 1021.46 1021.64 1021.87 1022.19 1022.60 1023.11 1023.68 1024.27 1024.86 1025.40 1025.88 1026.29 1026.62 1026.89 1027.11 1027.28 1027.39 1027.47 1027.49 1027.47 1027.40 1027.30 1027.16 1027.00 1026.82 1026.63 1026.42 1026.20 1025.94 1025.66 1025.35 1025.02 1024.68 1024.33 1023.99
1017.30 1018.04 1018.81 1019.54 1020.17 1020.67 1021.03 1021.27 1021.43 1021.58 1021.76 1022.02 1022.38 1022.84 1023.39 1023.98 1024.60 1025.19 1025.75 1026.24 1026.67 1027.03 1027.32 1027.56 1027.73 1027.85 1027.91 1027.92 1027.88 1027.80 1027.70 1027.57 1027.42 1027.26 1027.07 1026.86 1026.62 1026.35 1026.04 1025.71 1025.36 1025.01 1024.66
1017.11 1017.83 1018.59 1019.34 1020.01 1020.56 1020.96 1021.24 1021.43 1021.58 1021.74 1021.96 1022.27 1022.67 1023.17 1023.73 1024.33 1024.94 1025.53 1026.07 1026.56 1026.98 1027.34 1027.63 1027.86 1028.03 1028.14 1028.19 1028.20 1028.17 1028.11 1028.03 1027.92 1027.80 1027.65 1027.47 1027.25 1026.99 1026.69 1026.37 1026.02 1025.66 1025.31
1016.88 1017.57 1018.33 1019.09 1019.80 1020.40 1020.88 1021.22 1021.47 1021.64 1021.81 1022.01 1022.27 1022.61 1023.05 1023.55 1024.10 1024.67 1025.24 1025.79 1026.30 1026.76 1027.16 1027.51 1027.79 1028.01 1028.18 1028.29 1028.36 1028.38 1028.38 1028.35 1028.30 1028.22 1028.11 1027.97 1027.78 1027.54 1027.27 1026.95 1026.60 1026.25 1025.89
1016.65 1017.30 1018.04 1018.81 1019.56 1020.22 1020.77 1021.20 1021.52 1021.75 1021.95 1022.14 1022.37 1022.66 1023.01 1023.43 1023.90 1024.40 1024.91 1025.43 1025.92 1026.39 1026.82 1027.20 1027.54 1027.82 1028.05 1028.22 1028.36 1028.45 1028.50 1028.53 1028.53 1028.50 1028.43 1028.33 1028.18 1027.97 1027.72 1027.42 1027.09 1026.74 1026.38
1016.47 1017.07 1017.78 1018.55 1019.32 1020.03 1020.65 1021.16 1021.56 1021.87 1022.11 1022.32 1022.53 1022.77 1023.05 1023.37 1023.74 1024.14 1024.58 1025.03 1025.48 1025.94 1026.37 1026.79 1027.17 1027.51 1027.80 1028.04 1028.24 1028.39 1028.50 1028.58 1028.62 1028.63 1028.60 1028.53 1028.42 1028.25 1028.03 1027.77 1027.46 1027.13 1026.78
1016.37 1016.93 1017.60 1018.35 1019.11 1019.85 1020.52 1021.10 1021.57 1021.94 1022.24 1022.47 1022.68 1022.89 1023.11 1023.35 1023.62 1023.93 1024.27 1024.65 1025.06 1025.48 1025.92 1026.35 1026.77 1027.16 1027.51 1027.81 1028.06 1028.25 1028.40 1028.51 1028.58 1028.62 1028.62 1028.58 1028.50 1028.37 1028.19 1027.96 1027.70 1027.39 1027.07
1016.40 1016.91 1017.54 1018.24 1018.97 1019.70 1020.39 1021.00 1021.52 1021.95 1022.30 1022.57 1022.80 1022.99 1023.17 1023.36 1023.56 1023.79 1024.05 1024.36 1024.72 1025.11 1025.54 1025.99 1026.43 1026.86 1027.25 1027.59 1027.87 1028.09 1028.26 1028.37 1028.45 1028.49 1028.49 1028.47 1028.41 1028.32 1028.18 1028.01 1027.79 1027.53 1027.24
1016.59 1017.05 1017.61 1018.24 1018.92 1019.61 1020.27 1020.88 1021.43 1021.89 1022.28 1022.60 1022.85 1023.06 1023.24 1023.40 1023.56 1023.74 1023.96 1024.22 1024.54 1024.90 1025.32 1025.76 1026.22 1026.66 1027.07 1027.43 1027.72 1027.94 1028.09 1028.19 1028.24 1028.26 1028.26 1028.23 1028.19 1028.12 1028.03 1027.90 1027.74 1027.54 1027.30
1016.92 1017.34 1017.83 1018.38 1018.97 1019.58 1020.19 1020.77 1021.30 1021.78 1022.20 1022.56 1022.86 1023.11 1023.31 1023.49 1023.65 1023.82 1024.01 1024.25 1024.54 1024.89 1025.28 1025.72 1026.17 1026.60 1027.00 1027.35 1027.62 1027.81 1027.93 1027.99 1028.00 1027.98 1027.94 1027.90 1027.86 1027.81 1027.76 1027.68 1027.57 1027.43 1027.25
1017.38 1017.74 1018.17 1018.63 1019.13 1019.64 1020.17 1020.69 1021.19 1021.67 1022.11 1022.51 1022.86 1023.16 1023.42 1023.64 1023.84 1024.02 1024.22 1024.45 1024.73 1025.05 1025.43 1025.83 1026.25 1026.66 1027.03 1027.34 1027.57 1027.72 1027.78 1027.79 1027.75 1027.68 1027.60 1027.53 1027.48 1027.44 1027.41 1027.37 1027.31 1027.22 1027.09
1017.88 1018.22 1018.58 1018.96 1019.37 1019.79 1020.22 1020.67 1021.13 1021.59 1022.04 1022.48 1022.88 1023.25 1023.58 1023.86 1024.12 1024.34 1024.57 1024.80 1025.07 1025.37 1025.70 1026.07 1026.44 1026.80 1027.12 1027.38 1027.56 1027.65 1027.66 1027.61 1027.52 1027.40 1027.28 1027.18 1027.11 1027.06 1027.03 1027.01 1026.98 1026.93 1026.84
1018.37 1018.69 1019.01 1019.33 1019.66 1020.00 1020.36 1020.74 1021.16 1021.59 1022.05 1022.51 1022.97 1023.40 1023.80 1024.15 1024.46 1024.74 1024.99 1025.23 1025.48 1025.75 1026.05 1026.36 1026.67 1026.97 1027.23 1027.43 1027.56 1027.60 1027.57 1027.48 1027.34 1027.18 1027.03 1026.90 1026.80 1026.73 1026.69 1026.67 1026.64 1026.60 1026.52
1018.77 1019.09 1019.40 1019.69 1019.97 1020.26 1020.56 1020.90 1021.27 1021.69 1022.15 1022.63 1023.12 1023.61 1024.06 1024.48 1024.84 1025.16 1025.43 1025.68 1025.91 1026.14 1026.39 1026.64 1026.89 1027.12 1027.32 1027.47 1027.55 1027.56 1027.51 1027.39 1027.23 1027.05 1026.88 1026.72 1026.59 1026.49 1026.42 1026.37 1026.32 1026.26 1026.17
1019.02 1019.36 1019.68 1019.98 1020.25 1020.53 1020.81 1021.12 1021.48 1021.88 1022.33 1022.82 1023.34 1023.85 1024.35 1024.80 1025.20 1025.54 1025.82 1026.06 1026.27 1026.46 1026.65 1026.84 1027.03 1027.21 1027.36 1027.47 1027.53 1027.53 1027.47 1027.36 1027.20 1027.03 1026.84 1026.67 1026.51 1026.37 1026.26 1026.16 1026.06 1025.95 1025.83
1019.10 1019.48 1019.84 1020.17 1020.48 1020.77 1021.07 1021.38 1021.73 1022.13 1022.58 1023.07 1023.58 1024.10 1024.61 1025.07 1025.48 1025.82 1026.10 1026.32 1026.51 1026.66 1026.81 1026.95 1027.09 1027.22 1027.34 1027.43 1027.48 1027.49 1027.45 1027.36 1027.23 1027.08 1026.90 1026.72 1026.54 1026.37 1026.20 1026.04 1025.87 1025.70 1025.52
1019.02 1019.46 1019.87 1020.26 1020.63 1020.97 1021.30 1021.65 1022.01 1022.41 1022.84 1023.32 1023.81 1024.32 1024.80 1025.25 1025.64 1025.97 1026.24 1026.44 1026.60 1026.73 1026.84 1026.94 1027.04 1027.15 1027.25 1027.33 1027.40 1027.43 1027.42 1027.37 1027.28 1027.16 1027.00 1026.83 1026.63 1026.43 1026.21 1025.99 1025.76 1025.52 1025.28
Thickness
5731 5730 5729 5727 5726 5725 5725 5724 5725 5724 5723 5723 5722 5723 5722 5721 5720 5719 5716 5714 5715 5714 5714 5714 5713 5713 5712 5711 5711 5711 5710 5710 5710 5710 5711 5712 5712 5713 5714 5715 5717 5718 5718
5726 5725 5725 5723 5722 5721 5720 5720 5720 5719 5718 5718 5717 5717 5717 5716 5715 5714 5712 5711 5710 5709 5709 5708 5708 5708 5708 5708 5707 5707 5706 5706 5706 5706 5707 5707 5708 5708 5710 5710 5712 5712 5713
5722 5721 5720 5719 5718 5717 5717 5716 5716 5714 5714 5713 5712 5712 5711 5710 5710 5710 5708 5707 5706 5704 5703 5703 5703 5703 5703 5703 5703 5702 5702 5702 5702 5702 5702 5702 5703 5704 5704 5705 5706 5707 5707
5718 5716 5715 5714 5713 5712 5712 5711 5711 5710 5709 5708 5708 5707 5706 5705 5705 5705 5704 5703 5702 5701 5699 5698 5698 5698 5698 5698 5698 5698 5698 5698 5698 5698 5698 5698 5698 5699 5699 5700 5701 5701 5702
5714 5713 5711 5710 5709 5708 5708 5707 5706 5706 5704 5703 5703 5702 5702 5701 5700 5700 5700 5699 5698 5697 5696 5694 5693 5692 5693 5693 5693 5693 5694 5693 5693 5693 5693 5693 5693 5694 5694 5695 5695 5696 5697
5708 5708 5707 5706 5705 5704 5703 5703 5701 5700 5699 5699 5699 5697 5697 5696 5695 5695 5695 5693 5693 5692 5691 5691 5690 5689 5688 5688 5688 5688 5689 5689 5689 5689 5689 5688 5689 5689 5689 5690 5691 5691 5692
5703 5703 5703 5702 5700 5699 5698 5698 5697 5696 5695 5696 5694 5692 5692 5692 5691 5689 5689 5688 5688 5687 5686 5686 5686 5686 5686 5684 5683 5683 5684 5684 5684 5685 5684 5684 5684 5685 5685 5685 5686 5686 5687
5698 5698 5698 5697 5695 5694 5693 5693 5692 5691 5691 5692 5691 5688 5686 5685 5685 5685 5684 5683 5683 5682 5682 5682 5682 5681 5681 5681 5679 5678 5678 5679 5679 5680 5680 5681 5681 5680 5680 5680 5680 5680 5680
5694 5693 5693 5693 5691 5691 5689 5688 5688 5686 5685 5687 5687 5685 5682 5680 5679 5680 5679 5679 5677 5677 5676 5676 5676 5676 5676 5676 5675 5673 5673 5673 5674 5674 5675 5676 5676 5675 5675 5674 5674 5674 5674
5689 5688 5688 5688 5688 5687 5685 5685 5685 5684 5682 5681 5682 5682 5684 5681 5677 5674 5674 5675 5673 5672 5672 5672 5671 5670 5670 5670 5668 5667 5667 5667 5668 5668 5669 5670 5670 5670 5669 5669 5669 5669 5669
5685 5684 5684 5684 5683 5682 5682 5680 5680 5680 5679 5678 5677 5677 5677 5676 5678 5674 5669 5669 5669 5669 5668 5667 5666 5665 5665 5664 5663 5661 5661 5661 5661 5662 5662 5663 5663 5663 5663 5663 5663 5663 5664
5681 5680 5680 5680 5679 5678 5678 5676 5676 5675 5675 5674 5674 5674 5673 5672 5672 5670 5668 5666 5664 5664 5664 5663 5662 5661 5659 5658 5656 5655 5655 5655 5655 5655 5656 5656 5657 5657 5657 5658 5658 5658 5658
5677 5677 5676 5675 5675 5674 5673 5672 5672 5671 5671 5670 5670 5671 5671 5670 5670 5668 5665 5663 5661 5660 5659 5659 5657 5655 5654 5652 5651 5650 5649 5649 5649 5649 5650 5650 5651 5651 5651 5652 5652 5653 5653
5674 5673 5672 5671 5670 5669 5668 5668 5668 5667 5667 5666 5666 5666 5666 5666 5666 5665 5662 5659 5657 5656 5656 5654 5653 5651 5649 5647 5645 5644 5645 5643 5643 5643 5643 5644 5644 5645 5645 5646 5646 5647 5647
5670 5669 5668 5667 5666 5665 5664 5664 5663 5663 5662 5662 5662 5662 5661 5661 5661 5660 5659 5657 5653 5651 5650 5649 5647 5645 5643 5641 5639 5640 5640 5638 5637 5637 5637 5638 5638 5639 5639 5640 5640 5641 5641
5665 5664 5664 5663 5662 5661 5660 5659 5659 5658 5658 5657 5656 5656 5656 5656 5655 5654 5653 5652 5651 5649 5646 5645 5642 5640 5638 5636 5634 5634 5634 5633 5632 5631 5631 5631 5632 5632 5633 5633 5634 5634 5634
5660 5660 5659 5659 5657 5657 5656 5654 5654 5654 5654 5654 5653 5652 5651 5650 5649 5648 5647 5646 5645 5644 5640 5638 5637 5635 5633 5632 5630 5629 5629 5628 5628 5626 5625 5625 5626 5626 5627 5627 5628 5628 5628
5655 5655 5655 5654 5653 5652 5651 5651 5650 5649 5650 5649 5649 5648 5647 5645 5644 5643 5641 5641 5640 5638 5636 5632 5631 5630 5628 5626 5625 5624 5623 5623 5622 5621 5620 5620 5620 5620 5621 5622 5622 5622 5622
5651 5650 5650 5649 5648 5647 5647 5646 5646 5646 5646 5645 5645 5644 5643 5641 5639 5638 5637 5636 5634 5633 5630 5628 5626 5624 5623 5621 5619 5618 5618 5617 5617 5616 5616 5615 5615 5615 5615 5616 5617 5617 5617
5645 5645 5645 5644 5644 5643 5642 5642 5642 5641 5641 5641 5640 5639 5638 5636 5635 5634 5632 5631 5629 5627 5625 5623 5621 5619 5617 5615 5614 5614 5614 5613 5613 5613 5612 5611 5611 5610 5611 5611 5612 5612 5612
5640 5640 5639 5639 5638 5638 5637 5637 5636 5636 5636 5636 5635 5634 5633 5631 5629 5628 5627 5626 5624 5622 5620 5618 5616 5615 5613 5611 5610 5610 5610 5609 5609 5608 5608 5608 5608 5608 5608 5607 5607 5607 5607
5633 5633 5633 5633 5632 5632 5630 5628 5629 5631 5631 5630 5630 5629 5628 5625 5623 5621 5620 5618 5617 5617 5616 5614 5612 5611 5611 5609 5607 5605 5605 5605 5605 5604 5603 5603 5603 5604 5604 5604 5603 5603 5602
5627 5627 5627 5626 5626 5626 5623 5622 5621 5624 5626 5626 5626 5625 5623 5622 5618 5617 5615 5612 5611 5609 5608 5609 5608 5608 5607 5606 5603 5601 5600 5600 5600 5600 5597 5599 5599 5599 5599 5599 5598 5597 5597
5622 5621 5621 5621 5620 5619 5617 5616 5616 5618 5620 5621 5620 5619 5618 5617 5614 5612 5611 5609 5608 5606 5604 5603 5604 5604 5602 5600 5598 5597 5596 5594 5595 5593 5591 5593 5595 5595 5594 5594 5592 5592 5591
5617 5616 5615 5615 5614 5614 5611 5610 5609 5612 5614 5614 5614 5613 5612 5611 5608 5605 5605 5605 5603 5602 5599 5597 5596 5595 5593 5591 5590 5589 5589 5588 5590 5589 5587 5587 5589 5589 5589 5589 5588 5587 5586
5611 5610 5610 5610 5610 5609 5606 5604 5603 5607 5608 5608 5607 5606 5603 5602 5600 5598 5599 5599 5598 5598 5595 5593 5590 5588 5587 5585 5583 5583 5584 5584 5584 5584 5582 5579 5581 5581 5583 5584 5583 5582 5582